sat.trackr.live / text

‹ back to catalog

STARLINK-32234

NORAD 60414 · 2024-141S

PAYLOAD ACTIVE UNKNOWN

§ Identity

Operator
Country
US
Launch date
2024-08-10
Launch site
AFETR
Launch vehicle
Mass (kg)
RCS (m²)

Purposes: comms

External: N2YO · Heavens-Above · Gunter

§ Orbital elements

Epoch: 2026-09-21T17:14:57.090048Z

Period
94.01 min
Inclination
53.1618°
Eccentricity
0.0001412
Mean motion
15.31695207 rev/d
Perigee alt
469.8 km
Apogee alt
471.7 km
Semi-major
6,848.9 km
B*
1.1959e-5
RAAN
50.6303°
Arg perigee
60.3487°
Mean anomaly
299.7655°
Rev number
11,961

§ Raw data

STARLINK-322341 60414U 24141S   26264.71871632  .00000006  00000+0  11959-4 0  99962 60414  53.1618  50.6303 0001412  60.3487 299.7655 15.31695207119614

JSON: /api/v1/satellites/60414 · /tle

For live sub-satellite position, see the globe view (requires WebGL).

§ Visibility from observer

Set your observer location to see the next 7 days of passes ≥ 10°. The values pass through the URL so the page stays shareable.

No JS? Fill the form by hand. The geolocation button needs JavaScript.